Location: Santa Barbara
(34.4500°N, 119.7700°W)
Time: 23:50:05
(UTC-07:00)

Cosmos 1892 Rocket - Visible Passes

Search period start: 23 April 2018 00:00
Search period end: 03 May 2018 00:00
Orbit: 605 x 634 km, 82.5° (Epoch: 23 April)

Date Brightness Start Highest point End Pass type
(mag) Time Alt. Az. Time Alt. Az. Time Alt. Az.
23 Apr 6.6 02:33:12 11° ENE 02:33:12 11° ENE 02:33:41 10° NE visible
23 Apr 4.9 04:10:22 29° NW 04:10:22 29° NW 04:12:59 10° N visible
24 Apr 6.1 02:50:52 19° NE 02:50:52 19° NE 02:52:30 10° NNE visible
24 Apr 5.5 04:28:03 17° NW 04:28:03 17° NW 04:29:50 10° NNW visible
25 Apr 5.6 03:08:32 26° NNE 03:08:32 26° NNE 03:10:32 10° NNE visible
26 Apr 5.3 03:26:10 27° N 03:26:10 27° N 03:28:12 10° N visible
27 Apr 5.5 03:43:47 21° NNW 03:43:47 21° NNW 03:45:30 10° NNW visible
28 Apr 6.4 02:24:13 15° NE 02:24:13 15° NE 02:25:10 10° NNE visible
28 Apr 5.9 04:01:23 13° NW 04:01:23 13° NW 04:02:16 10° NNW visible
29 Apr 6.0 02:41:48 20° NNE 02:41:48 20° NNE 02:43:10 10° NNE visible
30 Apr 5.8 02:59:22 20° N 02:59:22 20° N 03:00:47 10° N visible
01 May 5.9 03:16:55 16° NNW 03:16:55 16° NNW 03:18:01 10° NNW visible
02 May 6.5 01:57:18 13° NNE 01:57:18 13° NNE 01:57:50 10° NNE visible
02 May 6.2 03:34:28 11° NW 03:34:28 11° NW 03:34:40 10° NW visible
